Location: Chester
(43.2628°N, 72.5951°W)
Time: 17:26:35
(UTC-05:00)

ISS - Pass Details

Date: 24 January 2021
Orbit: 417 x 422 km, 51.6° (Epoch: 08 March)

Event Time Altitude Azimuth Distance (km) Brightness Sun altitude
Rises 17:20:16 0° 251° (WSW) 2,363 3.0 -5.5°
Reaches altitude 10° 17:22:24 10° 257° (WSW) 1,502 0.8 -5.9°
Maximum altitude 17:25:41 48° 333° (NNW) 563 -3.1 -6.4°
Drops below altitude 10° 17:28:59 10° 50° (NE) 1,510 -1.5 -7.0°
Enters shadow 17:29:21 - 51° (NE) 1,654 -1.3 -7.1°
